contact:dominique.lefevre@mio.osupytheas.fr, maurice.libes@osupytheas.fr, didier.mallarino@osupytheas.fr
Project:EMSO http://www.emso-fr.org/EMSO-France
Depth: 2436.0 m
Title:EMSO Ligure Ouest : Data MII capteur MICROCAT
DateTime_Computer,Latitude,Longitude,Temperature,Conductivity,Pressure,DateTime_Instrument
DateTime_Computer,Latitude,Longitude,degC,S m-1,dbar,DateTime_Instrument
2022-09-05T00:01:43Z,42.805,6.029,13.3014,4.60052,2470.661,2022-9-05T02:03:35Z
2022-09-05T00:04:46Z,42.805,6.029,13.3008,4.60052,2470.684,2022-9-05T02:06:38Z
2022-09-05T00:07:50Z,42.805,6.029,13.3009,4.60057,2470.646,2022-9-05T02:09:41Z
2022-09-05T00:10:53Z,42.805,6.029,13.3005,4.60051,2470.614,2022-9-05T02:12:44Z
2022-09-05T00:13:56Z,42.805,6.029,13.3005,4.60057,2470.646,2022-9-05T02:15:47Z
2022-09-05T00:16:59Z,42.805,6.029,13.3009,4.60052,2470.624,2022-9-05T02:18:50Z
2022-09-05T00:20:02Z,42.805,6.029,13.3007,4.60052,2470.646,2022-9-05T02:21:53Z
2022-09-05T00:23:05Z,42.805,6.029,13.3006,4.60053,2470.67,2022-9-05T02:24:57Z
2022-09-05T00:26:08Z,42.805,6.029,13.3009,4.60049,2470.624,2022-9-05T02:28:00Z
2022-09-05T00:29:11Z,42.805,6.029,13.3005,4.60049,2470.637,2022-9-05T02:31:03Z
2022-09-05T00:32:15Z,42.805,6.029,13.3009,4.60050,2470.661,2022-9-05T02:34:06Z
2022-09-05T00:35:18Z,42.805,6.029,13.3009,4.60052,2470.646,2022-9-05T02:37:09Z
2022-09-05T00:38:21Z,42.805,6.029,13.3007,4.60051,2470.624,2022-9-05T02:40:12Z
2022-09-05T00:41:24Z,42.805,6.029,13.3009,4.60049,2470.624,2022-9-05T02:43:15Z
2022-09-05T00:44:27Z,42.805,6.029,13.3007,4.60049,2470.646,2022-9-05T02:46:18Z
2022-09-05T00:47:30Z,42.805,6.029,13.3010,4.60057,2470.661,2022-9-05T02:49:21Z
2022-09-05T00:50:33Z,42.805,6.029,13.3009,4.60055,2470.614,2022-9-05T02:52:25Z
2022-09-05T00:53:36Z,42.805,6.029,13.3008,4.60052,2470.646,2022-9-05T02:55:28Z
2022-09-05T00:56:39Z,42.805,6.029,13.3007,4.60059,2470.646,2022-9-05T02:58:31Z
2022-09-05T00:59:43Z,42.805,6.029,13.3010,4.60060,2470.6,2022-9-05T03:01:34Z
2022-09-05T01:02:46Z,42.805,6.029,13.3009,4.60058,2470.661,2022-9-05T03:04:37Z
2022-09-05T01:05:49Z,42.805,6.029,13.3008,4.60051,2470.624,2022-9-05T03:07:40Z
2022-09-05T01:08:52Z,42.805,6.029,13.3007,4.60054,2470.646,2022-9-05T03:10:43Z
2022-09-05T01:11:55Z,42.805,6.029,13.3009,4.60051,2470.624,2022-9-05T03:13:46Z
2022-09-05T01:14:58Z,42.805,6.029,13.3011,4.60051,2470.637,2022-9-05T03:16:49Z
2022-09-05T01:18:01Z,42.805,6.029,13.3011,4.60051,2470.624,2022-9-05T03:19:53Z
2022-09-05T01:21:04Z,42.805,6.029,13.3007,4.60053,2470.646,2022-9-05T03:22:56Z
2022-09-05T01:24:08Z,42.805,6.029,13.3010,4.60053,2470.624,2022-9-05T03:25:59Z
2022-09-05T01:27:11Z,42.805,6.029,13.3011,4.60052,2470.67,2022-9-05T03:29:02Z
2022-09-05T01:30:14Z,42.805,6.029,13.3009,4.60058,2470.661,2022-9-05T03:32:05Z
2022-09-05T01:33:17Z,42.805,6.029,13.3006,4.60058,2470.624,2022-9-05T03:35:08Z
2022-09-05T01:36:20Z,42.805,6.029,13.3007,4.60049,2470.646,2022-9-05T03:38:11Z
2022-09-05T01:39:23Z,42.805,6.029,13.3012,4.60048,2470.637,2022-9-05T03:41:14Z
2022-09-05T01:42:26Z,42.805,6.029,13.3007,4.60049,2470.624,2022-9-05T03:44:18Z
2022-09-05T01:45:29Z,42.805,6.029,13.3013,4.60047,2470.646,2022-9-05T03:47:21Z
2022-09-05T01:48:32Z,42.805,6.029,13.3009,4.60054,2470.67,2022-9-05T03:50:24Z
2022-09-05T01:51:35Z,42.805,6.029,13.3008,4.60052,2470.624,2022-9-05T03:53:27Z
2022-09-05T01:54:39Z,42.805,6.029,13.3007,4.60050,2470.624,2022-9-05T03:56:30Z
2022-09-05T01:57:42Z,42.805,6.029,13.3009,4.60049,2470.624,2022-9-05T03:59:33Z
2022-09-05T02:00:45Z,42.805,6.029,13.3011,4.60049,2470.661,2022-9-05T04:02:36Z
2022-09-05T02:03:48Z,42.805,6.029,13.3011,4.60046,2470.624,2022-9-05T04:05:39Z
2022-09-05T02:06:51Z,42.805,6.029,13.3009,4.60047,2470.646,2022-9-05T04:08:42Z
2022-09-05T02:09:54Z,42.805,6.029,13.3011,4.60048,2470.646,2022-9-05T04:11:46Z
2022-09-05T02:12:57Z,42.805,6.029,13.3007,4.60049,2470.684,2022-9-05T04:14:49Z
2022-09-05T02:16:00Z,42.805,6.029,13.3009,4.60049,2470.637,2022-9-05T04:17:52Z
2022-09-05T02:19:04Z,42.805,6.029,13.3008,4.60052,2470.577,2022-9-05T04:20:55Z
2022-09-05T02:22:07Z,42.805,6.029,13.3007,4.60052,2470.614,2022-9-05T04:23:58Z
2022-09-05T02:25:10Z,42.805,6.029,13.3011,4.60047,2470.6,2022-9-05T04:27:01Z
2022-09-05T02:28:13Z,42.805,6.029,13.3014,4.60049,2470.637,2022-9-05T04:30:04Z
2022-09-05T02:31:16Z,42.805,6.029,13.3010,4.60057,2470.624,2022-9-05T04:33:07Z
2022-09-05T02:34:19Z,42.805,6.029,13.3011,4.60057,2470.637,2022-9-05T04:36:11Z
2022-09-05T02:37:22Z,42.805,6.029,13.3014,4.60052,2470.637,2022-9-05T04:39:14Z
2022-09-05T02:40:25Z,42.805,6.029,13.3012,4.60071,2470.614,2022-9-05T04:42:17Z
2022-09-05T02:43:28Z,42.805,6.029,13.3008,4.60058,2470.646,2022-9-05T04:45:20Z
2022-09-05T02:46:32Z,42.805,6.029,13.3011,4.60053,2470.614,2022-9-05T04:48:23Z
2022-09-05T02:49:35Z,42.805,6.029,13.3013,4.60050,2470.614,2022-9-05T04:51:26Z
2022-09-05T02:52:38Z,42.805,6.029,13.3010,4.60057,2470.6,2022-9-05T04:54:29Z
2022-09-05T02:55:41Z,42.805,6.029,13.3014,4.60056,2470.624,2022-9-05T04:57:32Z
2022-09-05T02:58:44Z,42.805,6.029,13.3010,4.60049,2470.614,2022-9-05T05:00:35Z
2022-09-05T03:01:47Z,42.805,6.029,13.3010,4.60057,2470.6,2022-9-05T05:03:39Z
2022-09-05T03:04:50Z,42.805,6.029,13.3013,4.60050,2470.624,2022-9-05T05:06:42Z
2022-09-05T03:07:53Z,42.805,6.029,13.3011,4.60049,2470.624,2022-9-05T05:09:45Z
2022-09-05T03:10:57Z,42.805,6.029,13.3011,4.60049,2470.591,2022-9-05T05:12:48Z
2022-09-05T03:14:00Z,42.805,6.029,13.3009,4.60053,2470.646,2022-9-05T05:15:51Z
2022-09-05T03:17:03Z,42.805,6.029,13.3015,4.60052,2470.624,2022-9-05T05:18:54Z
2022-09-05T03:20:06Z,42.805,6.029,13.3010,4.60053,2470.624,2022-9-05T05:21:57Z
2022-09-05T03:23:09Z,42.805,6.029,13.3011,4.60057,2470.6,2022-9-05T05:25:00Z
2022-09-05T03:26:12Z,42.805,6.029,13.3009,4.60051,2470.614,2022-9-05T05:28:03Z
2022-09-05T03:29:15Z,42.805,6.029,13.3009,4.60049,2470.6,2022-9-05T05:31:07Z
2022-09-05T03:32:18Z,42.805,6.029,13.3013,4.60047,2470.6,2022-9-05T05:34:10Z
2022-09-05T03:35:21Z,42.805,6.029,13.3009,4.60049,2470.624,2022-9-05T05:37:13Z
2022-09-05T03:38:25Z,42.805,6.029,13.3010,4.60049,2470.6,2022-9-05T05:40:16Z
2022-09-05T03:41:28Z,42.805,6.029,13.3013,4.60054,2470.6,2022-9-05T05:43:19Z
2022-09-05T03:44:31Z,42.805,6.029,13.3012,4.60049,2470.614,2022-9-05T05:46:22Z
2022-09-05T03:47:34Z,42.805,6.029,13.3007,4.60046,2470.614,2022-9-05T05:49:25Z
2022-09-05T03:50:37Z,42.805,6.029,13.3012,4.60049,2470.6,2022-9-05T05:52:28Z
2022-09-05T03:53:40Z,42.805,6.029,13.3009,4.60052,2470.624,2022-9-05T05:55:32Z
2022-09-05T03:56:43Z,42.805,6.029,13.3005,4.60051,2470.624,2022-9-05T05:58:35Z
2022-09-05T03:59:46Z,42.805,6.029,13.3011,4.60049,2470.624,2022-9-05T06:01:38Z
2022-09-05T04:02:50Z,42.805,6.029,13.3007,4.60049,2470.6,2022-9-05T06:04:41Z
2022-09-05T04:05:53Z,42.805,6.029,13.3011,4.60050,2470.661,2022-9-05T06:07:44Z
2022-09-05T04:08:56Z,42.805,6.029,13.3016,4.60049,2470.6,2022-9-05T06:10:47Z
2022-09-05T04:11:59Z,42.805,6.029,13.3014,4.60047,2470.591,2022-9-05T06:13:50Z
2022-09-05T04:15:02Z,42.805,6.029,13.3010,4.60049,2470.624,2022-9-05T06:16:53Z
2022-09-05T04:18:05Z,42.805,6.029,13.3008,4.60048,2470.614,2022-9-05T06:19:56Z
2022-09-05T04:21:08Z,42.805,6.029,13.3009,4.60049,2470.624,2022-9-05T06:23:00Z
2022-09-05T04:24:11Z,42.805,6.029,13.3011,4.60049,2470.637,2022-9-05T06:26:03Z
2022-09-05T04:27:14Z,42.805,6.029,13.3009,4.60048,2470.614,2022-9-05T06:29:06Z
2022-09-05T04:30:18Z,42.805,6.029,13.3008,4.60046,2470.591,2022-9-05T06:32:09Z
2022-09-05T04:33:21Z,42.805,6.029,13.3009,4.60054,2470.624,2022-9-05T06:35:12Z
2022-09-05T04:36:24Z,42.805,6.029,13.3009,4.60047,2470.624,2022-9-05T06:38:15Z
2022-09-05T04:39:27Z,42.805,6.029,13.3009,4.60049,2470.6,2022-9-05T06:41:18Z
2022-09-05T04:42:30Z,42.805,6.029,13.3008,4.60047,2470.614,2022-9-05T06:44:21Z
2022-09-05T04:45:33Z,42.805,6.029,13.3011,4.60047,2470.577,2022-9-05T06:47:25Z
2022-09-05T04:48:36Z,42.805,6.029,13.3010,4.60047,2470.661,2022-9-05T06:50:28Z
2022-09-05T04:51:39Z,42.805,6.029,13.3009,4.60046,2470.6,2022-9-05T06:53:31Z
2022-09-05T04:54:43Z,42.805,6.029,13.3005,4.60046,2470.637,2022-9-05T06:56:34Z
2022-09-05T04:57:46Z,42.805,6.029,13.3005,4.60046,2470.614,2022-9-05T06:59:37Z
2022-09-05T05:00:49Z,42.805,6.029,13.3010,4.60046,2470.6,2022-9-05T07:02:40Z
2022-09-05T05:03:52Z,42.805,6.029,13.3006,4.60047,2470.624,2022-9-05T07:05:43Z
2022-09-05T05:06:55Z,42.805,6.029,13.3007,4.60053,2470.6,2022-9-05T07:08:46Z
2022-09-05T05:09:58Z,42.805,6.029,13.3004,4.60046,2470.553,2022-9-05T07:11:49Z
2022-09-05T05:13:01Z,42.805,6.029,13.3006,4.60050,2470.6,2022-9-05T07:14:53Z
2022-09-05T05:16:04Z,42.805,6.029,13.3007,4.60048,2470.624,2022-9-05T07:17:56Z
2022-09-05T05:19:07Z,42.805,6.029,13.3008,4.60049,2470.6,2022-9-05T07:20:59Z
2022-09-05T05:22:11Z,42.805,6.029,13.3011,4.60050,2470.553,2022-9-05T07:24:02Z
2022-09-05T05:25:14Z,42.805,6.029,13.3011,4.60047,2470.624,2022-9-05T07:27:05Z
2022-09-05T05:28:17Z,42.805,6.029,13.3007,4.60048,2470.577,2022-9-05T07:30:08Z
2022-09-05T05:31:20Z,42.805,6.029,13.3005,4.60048,2470.624,2022-9-05T07:33:11Z
2022-09-05T05:34:23Z,42.805,6.029,13.3006,4.60047,2470.577,2022-9-05T07:36:14Z
2022-09-05T05:37:26Z,42.805,6.029,13.3008,4.60049,2470.591,2022-9-05T07:39:18Z
2022-09-05T05:40:29Z,42.805,6.029,13.3010,4.60048,2470.553,2022-9-05T07:42:21Z
2022-09-05T05:43:32Z,42.805,6.029,13.3008,4.60049,2470.6,2022-9-05T07:45:24Z
2022-09-05T05:46:36Z,42.805,6.029,13.3009,4.60050,2470.553,2022-9-05T07:48:27Z
2022-09-05T05:49:39Z,42.805,6.029,13.3009,4.60049,2470.637,2022-9-05T07:51:30Z
2022-09-05T05:52:42Z,42.805,6.029,13.3009,4.60049,2470.577,2022-9-05T07:54:33Z
2022-09-05T05:55:45Z,42.805,6.029,13.3009,4.60046,2470.567,2022-9-05T07:57:36Z
2022-09-05T05:58:48Z,42.805,6.029,13.3009,4.60048,2470.553,2022-9-05T08:00:39Z
2022-09-05T06:01:51Z,42.805,6.029,13.3007,4.60049,2470.577,2022-9-05T08:03:42Z
2022-09-05T06:04:54Z,42.805,6.029,13.3009,4.60056,2470.577,2022-9-05T08:06:46Z
2022-09-05T06:07:57Z,42.805,6.029,13.3005,4.60052,2470.614,2022-9-05T08:09:49Z
2022-09-05T06:11:00Z,42.805,6.029,13.3006,4.60050,2470.567,2022-9-05T08:12:52Z
2022-09-05T06:14:04Z,42.805,6.029,13.3007,4.60049,2470.591,2022-9-05T08:15:55Z
2022-09-05T06:17:07Z,42.805,6.029,13.3011,4.60050,2470.614,2022-9-05T08:18:58Z
2022-09-05T06:20:10Z,42.805,6.029,13.3006,4.60049,2470.567,2022-9-05T08:22:01Z
2022-09-05T06:23:13Z,42.805,6.029,13.3008,4.60062,2470.6,2022-9-05T08:25:04Z
2022-09-05T06:26:16Z,42.805,6.029,13.3007,4.60049,2470.6,2022-9-05T08:28:07Z
2022-09-05T06:29:19Z,42.805,6.029,13.3014,4.60051,2470.553,2022-9-05T08:31:10Z
2022-09-05T06:32:22Z,42.805,6.029,13.3006,4.60050,2470.614,2022-9-05T08:34:14Z
2022-09-05T06:35:25Z,42.805,6.029,13.3009,4.60047,2470.553,2022-9-05T08:37:17Z
2022-09-05T06:38:29Z,42.805,6.029,13.3015,4.60049,2470.577,2022-9-05T08:40:20Z
2022-09-05T06:41:32Z,42.805,6.029,13.3008,4.60046,2470.591,2022-9-05T08:43:23Z
2022-09-05T06:44:35Z,42.805,6.029,13.3008,4.60049,2470.553,2022-9-05T08:46:26Z
2022-09-05T06:47:38Z,42.805,6.029,13.3009,4.60049,2470.577,2022-9-05T08:49:29Z
2022-09-05T06:50:41Z,42.805,6.029,13.3008,4.60047,2470.577,2022-9-05T08:52:32Z
2022-09-05T06:53:44Z,42.805,6.029,13.3010,4.60047,2470.553,2022-9-05T08:55:35Z
2022-09-05T06:56:47Z,42.805,6.029,13.3006,4.60048,2470.577,2022-9-05T08:58:39Z
2022-09-05T06:59:50Z,42.805,6.029,13.3009,4.60049,2470.553,2022-9-05T09:01:42Z
2022-09-05T07:02:53Z,42.805,6.029,13.3007,4.60049,2470.53,2022-9-05T09:04:45Z
2022-09-05T07:05:57Z,42.805,6.029,13.3008,4.60047,2470.553,2022-9-05T09:07:48Z
2022-09-05T07:09:00Z,42.805,6.029,13.3009,4.60049,2470.577,2022-9-05T09:10:51Z
2022-09-05T07:12:03Z,42.805,6.029,13.3007,4.60055,2470.553,2022-9-05T09:13:54Z
2022-09-05T07:15:06Z,42.805,6.029,13.3005,4.60050,2470.567,2022-9-05T09:16:57Z
2022-09-05T07:18:09Z,42.805,6.029,13.3010,4.60050,2470.553,2022-9-05T09:20:00Z
2022-09-05T07:21:12Z,42.805,6.029,13.3009,4.60052,2470.567,2022-9-05T09:23:04Z
2022-09-05T07:24:15Z,42.805,6.029,13.3009,4.60047,2470.567,2022-9-05T09:26:07Z
2022-09-05T07:27:18Z,42.805,6.029,13.3007,4.60052,2470.53,2022-9-05T09:29:10Z
2022-09-05T07:30:21Z,42.805,6.029,13.3011,4.60052,2470.577,2022-9-05T09:32:13Z
2022-09-05T07:33:25Z,42.805,6.029,13.3006,4.60051,2470.493,2022-9-05T09:35:16Z
2022-09-05T07:36:28Z,42.805,6.029,13.3014,4.60057,2470.53,2022-9-05T09:38:19Z
2022-09-05T07:39:31Z,42.805,6.029,13.3008,4.60054,2470.516,2022-9-05T09:41:22Z
2022-09-05T07:42:34Z,42.805,6.029,13.3009,4.60052,2470.553,2022-9-05T09:44:25Z
2022-09-05T07:45:37Z,42.805,6.029,13.3008,4.60054,2470.577,2022-9-05T09:47:28Z
2022-09-05T07:48:40Z,42.805,6.029,13.3015,4.60057,2470.567,2022-9-05T09:50:32Z
2022-09-05T07:51:43Z,42.805,6.029,13.3037,4.60064,2470.53,2022-9-05T09:53:35Z
2022-09-05T07:54:46Z,42.805,6.029,13.3078,4.60074,2470.53,2022-9-05T09:56:38Z
2022-09-05T07:57:50Z,42.805,6.029,13.3014,4.60064,2470.53,2022-9-05T09:59:41Z
2022-09-05T08:00:53Z,42.805,6.029,13.3060,4.60067,2470.567,2022-9-05T10:02:44Z
2022-09-05T08:03:56Z,42.805,6.029,13.3005,4.60076,2470.53,2022-9-05T10:05:47Z
2022-09-05T08:06:59Z,42.805,6.029,13.3006,4.60067,2470.577,2022-9-05T10:08:50Z
2022-09-05T08:10:02Z,42.805,6.029,13.3021,4.60067,2470.53,2022-9-05T10:11:53Z
2022-09-05T08:13:05Z,42.805,6.029,13.3056,4.60063,2470.591,2022-9-05T10:14:57Z
2022-09-05T08:16:08Z,42.805,6.029,13.3018,4.60090,2470.553,2022-9-05T10:18:00Z
2022-09-05T08:19:11Z,42.805,6.029,13.3046,4.60076,2470.553,2022-9-05T10:21:03Z
2022-09-05T08:22:14Z,42.805,6.029,13.3020,4.60075,2470.507,2022-9-05T10:24:06Z
2022-09-05T08:25:18Z,42.805,6.029,13.3014,4.60081,2470.53,2022-9-05T10:27:09Z
2022-09-05T08:28:21Z,42.805,6.029,13.3048,4.60098,2470.553,2022-9-05T10:30:12Z
2022-09-05T08:31:24Z,42.805,6.029,13.3048,4.60069,2470.553,2022-9-05T10:33:15Z
2022-09-05T08:34:27Z,42.805,6.029,13.3073,4.60075,2470.544,2022-9-05T10:36:18Z
2022-09-05T08:37:30Z,42.805,6.029,13.3063,4.60084,2470.591,2022-9-05T10:39:22Z
2022-09-05T08:40:33Z,42.805,6.029,13.3057,4.60064,2470.507,2022-9-05T10:42:25Z
2022-09-05T08:43:36Z,42.805,6.029,13.3057,4.60062,2470.567,2022-9-05T10:45:28Z
2022-09-05T08:46:39Z,42.805,6.029,13.3050,4.60087,2470.567,2022-9-05T10:48:31Z
2022-09-05T08:49:43Z,42.805,6.029,13.3055,4.60080,2470.577,2022-9-05T10:51:34Z
2022-09-05T08:52:46Z,42.805,6.029,13.3053,4.60057,2470.553,2022-9-05T10:54:37Z
2022-09-05T08:55:49Z,42.805,6.029,13.3067,4.60062,2470.567,2022-9-05T10:57:40Z
2022-09-05T08:58:52Z,42.805,6.029,13.3069,4.60088,2470.553,2022-9-05T11:00:43Z
2022-09-05T09:01:55Z,42.805,6.029,13.3082,4.60106,2470.567,2022-9-05T11:03:47Z
2022-09-05T09:04:58Z,42.805,6.029,13.3085,4.60067,2470.567,2022-9-05T11:06:50Z
2022-09-05T09:08:01Z,42.805,6.029,13.3076,4.60079,2470.53,2022-9-05T11:09:53Z
2022-09-05T09:11:04Z,42.805,6.029,13.3067,4.60070,2470.53,2022-9-05T11:12:56Z
2022-09-05T09:14:08Z,42.805,6.029,13.3039,4.60068,2470.53,2022-9-05T11:15:59Z
2022-09-05T09:17:11Z,42.805,6.029,13.3036,4.60070,2470.553,2022-9-05T11:19:02Z
2022-09-05T09:20:14Z,42.805,6.029,13.3039,4.60061,2470.567,2022-9-05T11:22:05Z
2022-09-05T09:23:17Z,42.805,6.029,13.3027,4.60091,2470.591,2022-9-05T11:25:08Z
2022-09-05T09:26:20Z,42.805,6.029,13.3021,4.60114,2470.553,2022-9-05T11:28:11Z
2022-09-05T09:29:23Z,42.805,6.029,13.3078,4.60078,2470.553,2022-9-05T11:31:15Z
2022-09-05T09:32:26Z,42.805,6.029,13.3056,4.60084,2470.567,2022-9-05T11:34:18Z
2022-09-05T09:35:29Z,42.805,6.029,13.3057,4.60099,2470.553,2022-9-05T11:37:21Z
2022-09-05T09:38:33Z,42.805,6.029,13.3058,4.60091,2470.53,2022-9-05T11:40:24Z
2022-09-05T09:41:36Z,42.805,6.029,13.3058,4.60078,2470.553,2022-9-05T11:43:27Z
2022-09-05T09:44:39Z,42.805,6.029,13.3067,4.60078,2470.544,2022-9-05T11:46:30Z
2022-09-05T09:47:42Z,42.805,6.029,13.3065,4.60090,2470.567,2022-9-05T11:49:33Z
2022-09-05T09:50:45Z,42.805,6.029,13.3067,4.60105,2470.567,2022-9-05T11:52:36Z
2022-09-05T09:53:48Z,42.805,6.029,13.3067,4.60118,2470.52,2022-9-05T11:55:40Z
2022-09-05T09:56:51Z,42.805,6.029,13.3032,4.60119,2470.553,2022-9-05T11:58:43Z
2022-09-05T09:59:54Z,42.805,6.029,13.3086,4.60111,2470.567,2022-9-05T12:01:46Z
2022-09-05T10:02:58Z,42.805,6.029,13.3029,4.60129,2470.567,2022-9-05T12:04:49Z
2022-09-05T10:06:01Z,42.805,6.029,13.3073,4.60088,2470.567,2022-9-05T12:07:52Z
2022-09-05T10:09:04Z,42.805,6.029,13.3051,4.60117,2470.567,2022-9-05T12:10:55Z
2022-09-05T10:12:07Z,42.805,6.029,13.3011,4.60143,2470.577,2022-9-05T12:13:58Z
2022-09-05T10:15:10Z,42.805,6.029,13.3011,4.60110,2470.553,2022-9-05T12:17:01Z
2022-09-05T10:18:13Z,42.805,6.029,13.3011,4.60105,2470.591,2022-9-05T12:20:05Z
2022-09-05T10:21:16Z,42.805,6.029,13.3010,4.60137,2470.544,2022-9-05T12:23:08Z
2022-09-05T10:24:19Z,42.805,6.029,13.3009,4.60128,2470.544,2022-9-05T12:26:11Z
2022-09-05T10:27:22Z,42.805,6.029,13.3005,4.60081,2470.567,2022-9-05T12:29:14Z
2022-09-05T10:30:26Z,42.805,6.029,13.3010,4.60081,2470.567,2022-9-05T12:32:17Z
2022-09-05T10:33:29Z,42.805,6.029,13.3009,4.60112,2470.6,2022-9-05T12:35:20Z
2022-09-05T10:36:32Z,42.805,6.029,13.3010,4.60116,2470.567,2022-9-05T12:38:23Z
2022-09-05T10:39:35Z,42.805,6.029,13.3011,4.60122,2470.614,2022-9-05T12:41:26Z
2022-09-05T10:42:38Z,42.805,6.029,13.3009,4.60187,2470.637,2022-9-05T12:44:30Z
2022-09-05T10:45:41Z,42.805,6.029,13.3009,4.60189,2470.577,2022-9-05T12:47:33Z
2022-09-05T10:48:44Z,42.805,6.029,13.3005,4.60175,2470.614,2022-9-05T12:50:36Z
2022-09-05T10:51:48Z,42.805,6.029,13.3009,4.60122,2470.6,2022-9-05T12:53:39Z
2022-09-05T10:54:51Z,42.805,6.029,13.3010,4.60102,2470.577,2022-9-05T12:56:42Z
2022-09-05T10:57:54Z,42.805,6.029,13.3008,4.60114,2470.577,2022-9-05T12:59:45Z
2022-09-05T11:00:57Z,42.805,6.029,13.3006,4.60094,2470.591,2022-9-05T13:02:48Z
2022-09-05T11:04:00Z,42.805,6.029,13.3011,4.60078,2470.614,2022-9-05T13:05:51Z
2022-09-05T11:07:03Z,42.805,6.029,13.3006,4.60072,2470.614,2022-9-05T13:08:55Z
2022-09-05T11:10:06Z,42.805,6.029,13.3010,4.60064,2470.591,2022-9-05T13:11:58Z
2022-09-05T11:13:09Z,42.805,6.029,13.3006,4.60113,2470.6,2022-9-05T13:15:01Z
2022-09-05T11:16:12Z,42.805,6.029,13.3007,4.60085,2470.577,2022-9-05T13:18:04Z
2022-09-05T11:19:16Z,42.805,6.029,13.3011,4.60089,2470.624,2022-9-05T13:21:07Z
2022-09-05T11:22:19Z,42.805,6.029,13.3006,4.60074,2470.614,2022-9-05T13:24:10Z
2022-09-05T11:25:22Z,42.805,6.029,13.3009,4.60102,2470.6,2022-9-05T13:27:13Z
2022-09-05T11:28:25Z,42.805,6.029,13.3009,4.60077,2470.563,2022-9-05T13:30:16Z
2022-09-05T11:31:28Z,42.805,6.029,13.3009,4.60061,2470.6,2022-9-05T13:33:19Z
2022-09-05T11:34:31Z,42.805,6.029,13.3011,4.60054,2470.6,2022-9-05T13:36:23Z
2022-09-05T11:37:34Z,42.805,6.029,13.3010,4.60074,2470.577,2022-9-05T13:39:26Z
2022-09-05T11:40:37Z,42.805,6.029,13.3006,4.60056,2470.624,2022-9-05T13:42:29Z
2022-09-05T11:43:41Z,42.805,6.029,13.3009,4.60053,2470.661,2022-9-05T13:45:32Z
2022-09-05T11:46:44Z,42.805,6.029,13.3006,4.60050,2470.624,2022-9-05T13:48:35Z
2022-09-05T11:49:47Z,42.805,6.029,13.3012,4.60053,2470.6,2022-9-05T13:51:38Z
2022-09-05T11:52:50Z,42.805,6.029,13.3011,4.60069,2470.614,2022-9-05T13:54:41Z
2022-09-05T11:55:53Z,42.805,6.029,13.3014,4.60052,2470.6,2022-9-05T13:57:44Z
2022-09-05T11:58:56Z,42.805,6.029,13.3009,4.60053,2470.624,2022-9-05T14:00:48Z
2022-09-05T12:01:59Z,42.805,6.029,13.3011,4.60052,2470.646,2022-9-05T14:03:51Z
2022-09-05T12:05:02Z,42.805,6.029,13.3009,4.60054,2470.624,2022-9-05T14:06:54Z
2022-09-05T12:08:06Z,42.805,6.029,13.3010,4.60057,2470.646,2022-9-05T14:09:57Z
2022-09-05T12:11:09Z,42.805,6.029,13.3009,4.60053,2470.624,2022-9-05T14:13:00Z
2022-09-05T12:14:12Z,42.805,6.029,13.3011,4.60052,2470.624,2022-9-05T14:16:03Z
2022-09-05T12:17:15Z,42.805,6.029,13.3010,4.60050,2470.646,2022-9-05T14:19:06Z
2022-09-05T12:20:18Z,42.805,6.029,13.3006,4.60052,2470.614,2022-9-05T14:22:09Z
2022-09-05T12:23:21Z,42.805,6.029,13.3011,4.60052,2470.614,2022-9-05T14:25:13Z
2022-09-05T12:26:24Z,42.805,6.029,13.3010,4.60054,2470.661,2022-9-05T14:28:16Z
2022-09-05T12:29:27Z,42.805,6.029,13.3006,4.60053,2470.624,2022-9-05T14:31:19Z
2022-09-05T12:32:31Z,42.805,6.029,13.3008,4.60052,2470.6,2022-9-05T14:34:22Z
2022-09-05T12:35:34Z,42.805,6.029,13.3009,4.60053,2470.624,2022-9-05T14:37:25Z
2022-09-05T12:38:37Z,42.805,6.029,13.3009,4.60052,2470.624,2022-9-05T14:40:28Z
2022-09-05T12:41:40Z,42.805,6.029,13.3006,4.60052,2470.637,2022-9-05T14:43:31Z
2022-09-05T12:44:43Z,42.805,6.029,13.3009,4.60055,2470.661,2022-9-05T14:46:34Z
2022-09-05T12:47:46Z,42.805,6.029,13.3009,4.60057,2470.661,2022-9-05T14:49:38Z
2022-09-05T12:50:49Z,42.805,6.029,13.3008,4.60051,2470.6,2022-9-05T14:52:41Z
2022-09-05T12:53:52Z,42.805,6.029,13.3010,4.60063,2470.661,2022-9-05T14:55:44Z
2022-09-05T12:56:55Z,42.805,6.029,13.3010,4.60055,2470.637,2022-9-05T14:58:47Z
2022-09-05T12:59:59Z,42.805,6.029,13.3006,4.60057,2470.624,2022-9-05T15:01:50Z
2022-09-05T13:03:02Z,42.805,6.029,13.3007,4.60053,2470.637,2022-9-05T15:04:53Z
2022-09-05T13:06:05Z,42.805,6.029,13.3005,4.60057,2470.624,2022-9-05T15:07:56Z
2022-09-05T13:09:08Z,42.805,6.029,13.3004,4.60064,2470.646,2022-9-05T15:10:59Z
2022-09-05T13:12:11Z,42.805,6.029,13.3011,4.60060,2470.646,2022-9-05T15:14:03Z
2022-09-05T13:15:14Z,42.805,6.029,13.3009,4.60058,2470.661,2022-9-05T15:17:06Z
2022-09-05T13:18:17Z,42.805,6.029,13.3006,4.60056,2470.614,2022-9-05T15:20:09Z
2022-09-05T13:21:20Z,42.805,6.029,13.3011,4.60055,2470.637,2022-9-05T15:23:12Z
2022-09-05T13:24:24Z,42.805,6.029,13.3007,4.60057,2470.614,2022-9-05T15:26:15Z
2022-09-05T13:27:27Z,42.805,6.029,13.3011,4.60053,2470.6,2022-9-05T15:29:18Z
2022-09-05T13:30:30Z,42.805,6.029,13.3011,4.60052,2470.67,2022-9-05T15:32:21Z
2022-09-05T13:33:33Z,42.805,6.029,13.3010,4.60057,2470.646,2022-9-05T15:35:24Z
2022-09-05T13:36:36Z,42.805,6.029,13.3008,4.60056,2470.637,2022-9-05T15:38:27Z
2022-09-05T13:39:39Z,42.805,6.029,13.3009,4.60059,2470.646,2022-9-05T15:41:31Z
2022-09-05T13:42:42Z,42.805,6.029,13.3008,4.60052,2470.661,2022-9-05T15:44:34Z
2022-09-05T13:45:45Z,42.805,6.029,13.3011,4.60059,2470.661,2022-9-05T15:47:37Z
2022-09-05T13:48:49Z,42.805,6.029,13.3012,4.60052,2470.646,2022-9-05T15:50:40Z
2022-09-05T13:51:52Z,42.805,6.029,13.3010,4.60053,2470.624,2022-9-05T15:53:43Z
2022-09-05T13:54:55Z,42.805,6.029,13.3008,4.60053,2470.646,2022-9-05T15:56:46Z
2022-09-05T13:57:58Z,42.805,6.029,13.3010,4.60056,2470.624,2022-9-05T15:59:49Z
2022-09-05T14:01:01Z,42.805,6.029,13.3006,4.60049,2470.646,2022-9-05T16:02:52Z
2022-09-05T14:04:04Z,42.805,6.029,13.3009,4.60049,2470.633,2022-9-05T16:05:56Z
2022-09-05T14:07:07Z,42.805,6.029,13.3008,4.60049,2470.624,2022-9-05T16:08:59Z
2022-09-05T14:10:10Z,42.805,6.029,13.3007,4.60050,2470.661,2022-9-05T16:12:02Z
2022-09-05T14:13:14Z,42.805,6.029,13.3007,4.60055,2470.624,2022-9-05T16:15:05Z
2022-09-05T14:16:17Z,42.805,6.029,13.3009,4.60049,2470.624,2022-9-05T16:18:08Z
2022-09-05T14:19:20Z,42.805,6.029,13.3011,4.60051,2470.637,2022-9-05T16:21:11Z
2022-09-05T14:22:23Z,42.805,6.029,13.3007,4.60055,2470.646,2022-9-05T16:24:14Z
2022-09-05T14:25:26Z,42.805,6.029,13.3011,4.60050,2470.61,2022-9-05T16:27:17Z
2022-09-05T14:28:29Z,42.805,6.029,13.3009,4.60050,2470.646,2022-9-05T16:30:21Z
2022-09-05T14:31:32Z,42.805,6.029,13.3010,4.60051,2470.646,2022-9-05T16:33:24Z
2022-09-05T14:34:35Z,42.805,6.029,13.3008,4.60050,2470.646,2022-9-05T16:36:27Z
2022-09-05T14:37:39Z,42.805,6.029,13.3010,4.60051,2470.661,2022-9-05T16:39:30Z
2022-09-05T14:40:42Z,42.805,6.029,13.3009,4.60051,2470.661,2022-9-05T16:42:33Z
2022-09-05T14:43:45Z,42.805,6.029,13.3010,4.60049,2470.637,2022-9-05T16:45:36Z
2022-09-05T14:46:48Z,42.805,6.029,13.3011,4.60058,2470.646,2022-9-05T16:48:39Z
2022-09-05T14:49:51Z,42.805,6.029,13.3006,4.60061,2470.646,2022-9-05T16:51:42Z
2022-09-05T14:52:54Z,42.805,6.029,13.3012,4.60058,2470.67,2022-9-05T16:54:45Z
2022-09-05T14:55:57Z,42.805,6.029,13.3009,4.60061,2470.637,2022-9-05T16:57:49Z
2022-09-05T14:59:00Z,42.805,6.029,13.3009,4.60052,2470.624,2022-9-05T17:00:52Z
2022-09-05T15:02:03Z,42.805,6.029,13.3008,4.60056,2470.684,2022-9-05T17:03:55Z
2022-09-05T15:05:07Z,42.805,6.029,13.3008,4.60051,2470.684,2022-9-05T17:06:58Z
2022-09-05T15:08:10Z,42.805,6.029,13.3009,4.60052,2470.624,2022-9-05T17:10:01Z
2022-09-05T15:11:13Z,42.805,6.029,13.3008,4.60052,2470.661,2022-9-05T17:13:04Z